Regional Weather Roundup
Issued by NWS

Home | Current Version | Previous Version | Graphics & Text | Print | Product List | Glossary On
Versions: 1 2 3 4 5 6 7 8 9 10 11 12 13 14 15 16 17 18 19 20 21 22 23 24 25 26 27 28 29 30 31 32 33 34 35 36 37 38 39 40 41 42 43 44 45 46 47 48 49 50
000
ASUS45 KABQ 270101
RWRNM
NEW MEXICO REGIONAL WEATHER ROUNDUP
NATIONAL WEATHER SERVICE ALBUQUERQUE NM
700 PM MDT TUE JUL 26 2016

NOTE: "FAIR" MEANS FEW OR NO CLOUDS BELOW 12,000 FEET AGL WITH NO
       SIGNIFICANT WEATHER OR OBSTRUCTIONS TO VISION.

      THIS PRODUCT IS RELEASED AS TWO VERSIONS.  ONE VERSION NEAR
      THE TOP OF THE HOUR CONTAINING PRELIMINARY DATA FROM ALBUQUERQUE
      AND OTHER STATIONS.  A FINAL VERSION WITH ADDITIONAL DATA IS
      ISSUED ABOUT 10 MINUTES AFTER THE HOUR.

NMZ501-503-504-510>518-270200-
NORTHWEST PLATEAU/NORTHCENTRAL MOUNTAINS

CITY           SKY/WX    TMP DP  RH WIND       PRES   REMARKS
FARMINGTON     FAIR      84  46  26 E17       30.12R
LOS ALAMOS     CLOUDY    77  31  18 N15G24    30.29R
SANTA FE       FAIR      83  46  27 N10       30.20R
TAOS           FAIR      75  37  25 NE6       30.31R
ANGEL FIRE     CLOUDY    61  52  72 S7        30.41F

$$
NMZ402-403-502-505>509-270200-
WESTCENTRAL MOUNTAINS/SOUTHWEST MOUNTAINS

CITY           SKY/WX    TMP DP  RH WIND       PRES   REMARKS
GALLUP         FAIR      85  41  21 N8        30.20F
GRANTS         FAIR      84  45  25 NW3       30.23S
SILVER CITY    FAIR      86  52  31 SE8       30.12S

$$
NMZ407-409-411-412-270200-
SOUTHERN DESERTS

CITY           SKY/WX    TMP DP  RH WIND       PRES   REMARKS
LORDSBURG      FAIR      91  52  25 N3        29.99S
DEMING         FAIR      92  52  25 N8G22     30.01
LAS CRUCES     PTSUNNY   90  49  25 N14       30.03R
HOLLOMAN AFB   FAIR      93  54  26 S15       29.98R
T OR C         FAIR      87  51  28 NW13      30.06S

$$
NMZ519>523-270200-
CENTRAL VALLEYS/CENTRAL HIGHLANDS

CITY           SKY/WX    TMP DP  RH WIND       PRES   REMARKS
ALBUQUERQUE    PTSUNNY   90  48  23 N16       30.09R
DOUBLE EAGLE   PTSUNNY   88  52  29 N14       30.15R
CLINES CORNERS LGT RAIN  68  56  65 E10       30.29R
BELEN          CLOUDY    84  53  34 CALM      30.09R THUNDER
SOCORRO        FAIR      90  49  24 W6        30.05S

$$
NMZ524>526-539-540-270200-
SOUTHCENTRAL MOUNTAINS

CITY           SKY/WX    TMP DP  RH WIND       PRES   REMARKS
RUIDOSO          N/A     73  54  49 E8        30.27R

$$
NMZ527>531-270200-
NORTHEAST HIGHLANDS/NORTHEAST PLAINS

CITY           SKY/WX    TMP DP  RH WIND       PRES   REMARKS
LAS VEGAS      CLOUDY    65  58  78 NE10      30.31R
RATON          PTSUNNY   66  47  50 SE20      30.23R THUNDER
CLAYTON        FAIR      89  47  23 S8        30.10F

$$
NMZ532>537-270200-
EASTCENTRAL PLAINS

CITY           SKY/WX    TMP DP  RH WIND       PRES   REMARKS
TUCUMCARI      FAIR      91  55  29 S14G21    30.01S
CANNON AFB     FAIR      81  60  48 SE9       30.07S
CLOVIS AIRPORT FAIR      81  57  44 S12       30.07S

$$
NMZ028-029-538-270200-
SOUTHEAST PLAINS

CITY           SKY/WX    TMP DP  RH WIND       PRES   REMARKS
ROSWELL        FAIR      87  57  35 SW9       30.00F
ARTESIA        FAIR      84  61  45 S7        30.01S
CARLSBAD       FAIR      77  68  73 S10       29.99F
HOBBS          FAIR      82  63  51 S5        30.02F


$$




USA.gov is the U.S. government's official web portal to all federal, state and local government web resources and services.